Terminal Aerodrome Forecast
Issued by NWS Charleston, WV

Current Version | Previous Version | Graphics & Text | Print | Product List | Glossary On
Versions: 1 2 3 4 5 6 7 8 9 10 11 12 13 14 15 16 17 18 19 20 21 22 23 24
000
FTUS41 KRLX 241131
TAFPKB
TAF
KPKB 241131Z 2412/2512 00000KT P6SM BKN090
      TEMPO 2413/2416 BKN025
     FM241600 01004KT P6SM BKN040
     FM242000 36005KT P6SM SCT040
     FM250100 VRB03KT P6SM FEW250
     FM250900 00000KT 5SM BR SCT090=

USA.gov is the U.S. government's official web portal to all federal, state and local government web resources and services.